Location: Hilton Head Island
(32.2163°N, 80.7526°W)
Time: 22:49:57
(UTC-05:00)

Tiros 1 despin weight - Pass Details

Date: 22 February 2026
Orbit: 556 x 593 km, 48.2° (Epoch: 7 March)

Event Time Altitude Azimuth Distance (km) Brightness Sun altitude
Rises 18:45:36 0° 318° (NW) 2,732 ? -7.2°
Reaches altitude 10° 18:48:09 10° 331° (NNW) 1,835 ? -7.7°
Maximum altitude 18:51:41 26° 29° (NNE) 1,120 ? -8.5°
Enters shadow 18:54:48 12° 83° (E) 1,709 ? -9.1°
Drops below altitude 10° 18:55:12 10° 87° (E) 1,836 - -9.2°
Sets 18:57:45 0° 100° (E) 2,734 - -9.7°
